FW8662 Weather Reports


Display with metric or nautical units.
time (UTC)temp
F
wind
direction
speed
MPH
gust
MPH
rain 1hr
in
rain 24hr
in
rain mn
in
humidity
%
barometer
mb
20260507234516 75 90 6.0 18.0 0.00 0.00 0.00 60 1002.8
20260507233516 76 113 9.0 21.0 0.00 0.00 0.00 60 1002.7
20260507232517 76 90 9.0 17.0 0.00 0.00 0.00 60 1002.7
20260507231516 76 113 9.0 22.0 0.00 0.00 0.00 60 1002.6
20260507230537 76 113 6.0 21.0 0.00 0.00 0.00 60 1002.6
20260507225516 76 90 6.0 17.0 0.00 0.00 0.00 60 1002.7
20260507224516 76 90 7.0 19.0 0.00 0.00 0.00 59 1002.8
20260507223516 76 90 9.0 19.0 0.00 0.00 0.00 59 1003.0
20260507222516 77 90 7.0 17.0 0.00 0.00 0.00 58 1002.9
20260507221518 77 113 7.0 20.0 0.00 0.00 0.00 58 1002.9
20260507220516 77 90 6.0 16.0 0.00 0.00 0.00 58 1003.1
20260507215516 77 90 5.0 15.0 0.00 0.00 0.00 58 1003.3
20260507214516 77 90 7.0 16.0 0.00 0.00 0.00 57 1003.2
20260507213516 77 90 9.0 20.0 0.00 0.00 0.00 57 1003.1
20260507212516 78 90 6.0 16.0 0.00 0.00 0.00 57 1003.4
20260507211536 78 113 8.0 21.0 0.00 0.00 0.00 57 1003.5
20260507210516 78 135 6.0 22.0 0.00 0.00 0.00 56 1003.5
20260507205536 78 113 8.0 23.0 0.00 0.00 0.00 57 1003.5
20260507204516 78 90 6.0 18.0 0.00 0.00 0.00 57 1003.5
20260507203536 78 113 6.0 15.0 0.00 0.00 0.00 57 1003.3
20260507202519 79 90 5.0 18.0 0.00 0.00 0.00 57 1003.2
20260507201537 79 90 4.0 14.0 0.00 0.00 0.00 57 1003.5
20260507200516 80 90 6.0 16.0 0.00 0.00 0.00 56 1003.6
20260507195516 79 113 7.0 22.0 0.00 0.00 0.00 56 1003.4
20260507194516 79 113 5.0 18.0 0.00 0.00 0.00 57 1003.3
20260507193517 79 113 6.0 22.0 0.00 0.00 0.00 57 1003.3
20260507192516 79 90 5.0 14.0 0.00 0.00 0.00 57 1003.5
20260507191516 79 113 7.0 18.0 0.00 0.00 0.00 56 1003.5
20260507190515 79 90 5.0 25.0 0.00 0.00 0.00 55 1003.5
20260507185538 79 113 7.0 19.0 0.00 0.00 0.00 55 1003.5
20260507184538 79 135 5.0 14.0 0.00 0.00 0.00 56 1003.6
20260507183536 79 90 8.0 20.0 0.00 0.00 0.00 56 1003.4
20260507182518 79 90 7.0 24.0 0.00 0.00 0.00 55 1003.6
20260507181538 79 113 8.0 24.0 0.00 0.00 0.00 56 1003.8
20260507180516 79 90 8.0 24.0 0.00 0.00 0.00 55 1003.9
20260507175516 79 113 5.0 19.0 0.00 0.00 0.00 55 1004.0
20260507174516 80 90 7.0 24.0 0.00 0.00 0.00 54 1004.2
20260507173537 81 90 8.0 23.0 0.00 0.00 0.00 52 1004.4
20260507172536 81 113 8.0 24.0 0.00 0.00 0.00 52 1004.5
20260507171516 81 90 9.0 22.0 0.00 0.00 0.00 52 1004.6
20260507170515 81 113 9.0 25.0 0.00 0.00 0.00 52 1004.6
20260507165516 81 113 11.0 27.0 0.00 0.00 0.00 51 1004.4
20260507164517 80 113 9.0 22.0 0.00 0.00 0.00 50 1004.6
20260507163519 82 158 4.0 11.0 0.00 0.00 0.00 49 1004.7
20260507162517 81 90 9.0 31.0 0.00 0.00 0.00 50 1005.1
20260507161517 81 90 11.0 32.0 0.00 0.00 0.00 50 1005.3
20260507160516 81 90 9.0 26.0 0.00 0.00 0.00 51 1005.3
20260507155515 80 90 10.0 32.0 0.00 0.00 0.00 53 1005.3
20260507154538 80 90 7.0 24.0 0.00 0.00 0.00 54 1005.7
20260507153557 80 90 7.0 24.0 0.00 0.00 0.00 56 1005.8
20260507152516 79 68 13.0 29.0 0.00 0.00 0.00 58 1006.0
20260507151517 78 68 7.0 24.0 0.00 0.00 0.00 62 1006.3
20260507150538 78 90 8.0 25.0 0.00 0.00 0.00 63 1006.5
20260507145516 77 68 5.0 16.0 0.00 0.00 0.00 65 1006.7
20260507144557 77 90 9.0 30.0 0.00 0.00 0.00 65 1007.0
20260507143516 76 90 9.0 27.0 0.00 0.00 0.00 67 1007.3
20260507142517 76 90 8.0 25.0 0.00 0.00 0.00 68 1007.7
20260507141515 75 90 6.0 19.0 0.00 0.00 0.00 71 1007.8
20260507140517 74 90 9.0 22.0 0.00 0.00 0.00 73 1007.9
20260507135537 73 90 9.0 22.0 0.00 0.00 0.00 75 1008.2
20260507134516 72 68 8.0 25.0 0.00 0.00 0.00 77 1008.2
20260507133516 71 90 9.0 23.0 0.00 0.00 0.00 79 1008.4
20260507132516 71 68 8.0 20.0 0.00 0.00 0.00 79 1008.7
20260507131517 70 68 11.0 20.0 0.00 0.00 0.00 80 1009.1
20260507130537 70 68 7.0 16.0 0.00 0.00 0.00 80 1009.1
20260507125516 70 90 10.0 22.0 0.00 0.00 0.00 81 1009.3
20260507124516 70 68 10.0 20.0 0.00 0.00 0.00 80 1009.4
20260507123536 70 68 8.0 20.0 0.00 0.00 0.00 80 1009.5
20260507122517 70 68 13.0 20.0 0.00 0.00 0.00 81 1009.6
20260507121516 70 90 8.0 17.0 0.00 0.00 0.00 81 1009.8
20260507120516 70 68 9.0 19.0 0.00 0.00 0.00 81 1009.8
20260507115515 70 90 7.0 17.0 0.00 0.00 0.00 81 1009.5
20260507114516 70 68 11.0 22.0 0.00 0.00 0.00 82 1009.5
20260507113516 70 68 8.0 20.0 0.00 0.00 0.00 82 1009.5
20260507112517 70 68 11.0 21.0 0.00 0.00 0.00 82 1009.2
20260507111536 69 68 9.0 24.0 0.00 0.00 0.00 83 1009.0
20260507110518 69 90 11.0 22.0 0.00 0.00 0.00 83 1008.9
20260507105537 69 68 10.0 22.0 0.00 0.00 0.00 84 1008.8
20260507104515 69 68 12.0 20.0 0.00 0.00 0.00 84 1008.7
20260507103516 69 90 9.0 19.0 0.00 0.00 0.00 84 1008.9
20260507102517 69 68 11.0 19.0 0.00 0.00 0.00 84 1009.3
20260507101516 69 68 12.0 21.0 0.00 0.00 0.00 84 1009.2
20260507100516 69 68 9.0 19.0 0.00 0.00 0.00 84 1009.1
20260507095536 68 68 9.0 15.0 0.00 0.00 0.00 85 1009.1
20260507094517 69 68 11.0 20.0 0.00 0.00 0.00 85 1009.2
20260507093537 68 68 8.0 20.0 0.00 0.00 0.00 85 1009.2
20260507092517 68 68 10.0 22.0 0.00 0.00 0.00 86 1009.2
20260507091516 68 90 9.0 17.0 0.00 0.00 0.00 86 1009.1
20260507090517 68 68 11.0 19.0 0.00 0.00 0.00 86 1009.2
20260507085515 68 68 12.0 20.0 0.00 0.00 0.00 86 1009.4
20260507084517 68 90 10.0 18.0 0.00 0.00 0.00 86 1009.4
20260507083517 68 68 10.0 19.0 0.00 0.00 0.00 86 1009.4
20260507082517 68 68 11.0 18.0 0.00 0.00 0.00 86 1009.5
20260507081515 68 68 12.0 18.0 0.00 0.00 0.00 86 1009.8
20260507080516 68 90 11.0 20.0 0.00 0.00 0.00 85 1009.7
20260507075537 68 68 13.0 21.0 0.00 0.00 0.00 86 1009.9
20260507074516 67 68 11.0 19.0 0.00 0.00 0.00 86 1009.9
20260507073517 68 68 12.0 22.0 0.00 0.00 0.00 86 1010.1
20260507072637 68 68 12.0 20.0 0.00 0.00 0.00 86 1010.3
20260507071516 67 68 10.0 18.0 0.00 0.00 0.00 86 1010.4
20260507070517 68 68 10.0 19.0 0.00 0.00 0.00 86 1010.5
20260507065517 68 68 12.0 24.0 0.00 0.00 0.00 85 1010.7
20260507064517 68 68 9.0 21.0 0.00 0.00 0.00 85 1010.9
20260507063537 68 90 11.0 18.0 0.00 0.00 0.00 85 1011.0
20260507062517 68 68 11.0 20.0 0.00 0.00 0.00 84 1011.1
20260507061516 69 90 10.0 19.0 0.00 0.00 0.00 84 1011.2
20260507060516 69 68 11.0 19.0 0.00 0.00 0.00 84 1011.5
20260507055515 69 68 9.0 20.0 0.00 0.00 0.00 84 1011.6
20260507054517 69 68 11.0 18.0 0.00 0.00 0.00 84 1011.7
20260507053516 69 68 10.0 18.0 0.00 0.00 0.00 84 1011.9
20260507052517 69 68 9.0 16.0 0.00 0.00 0.00 84 1012.0
20260507051516 69 68 9.0 18.0 0.00 0.00 0.00 85 1012.1
20260507050516 69 68 9.0 14.0 0.00 0.00 0.00 85 1012.2
20260507045515 69 68 10.0 17.0 0.00 0.00 0.00 84 1012.2
20260507044518 69 90 9.0 18.0 0.00 0.00 0.00 84 1012.4
20260507043517 69 68 7.0 14.0 0.00 0.00 0.00 85 1012.7
20260507042516 69 68 7.0 12.0 0.00 0.00 0.00 84 1012.9
20260507041517 69 68 7.0 13.0 0.00 0.00 0.00 84 1012.7
20260507040537 69 68 7.0 11.0 0.00 0.00 0.00 84 1012.7
20260507035539 69 68 7.0 11.0 0.00 0.00 0.00 84 1012.9
20260507034517 70 68 8.0 13.0 0.00 0.00 0.00 82 1012.6
20260507033516 70 68 6.0 12.0 0.00 0.00 0.00 82 1012.9
20260507032519 71 68 6.0 12.0 0.00 0.00 0.00 80 1013.1
20260507031539 71 68 5.0 10.0 0.00 0.00 0.00 80 1013.0
20260507030537 71 68 6.0 12.0 0.00 0.00 0.00 79 1013.1
20260507025516 71 68 5.0 9.0 0.00 0.00 0.00 78 1013.1
20260507024518 72 68 6.0 10.0 0.00 0.00 0.00 77 1013.3
20260507023516 72 68 6.0 8.0 0.00 0.00 0.00 77 1013.5
20260507022517 72 68 6.0 8.0 0.00 0.00 0.00 76 1013.5
20260507021518 73 68 6.0 9.0 0.00 0.00 0.00 76 1013.4
20260507020517 73 68 6.0 8.0 0.00 0.00 0.00 75 1013.5
20260507015516 73 68 6.0 9.0 0.00 0.00 0.00 75 1013.5
20260507014516 73 68 6.0 9.0 0.00 0.00 0.00 74 1013.7
20260507013518 74 68 7.0 9.0 0.00 0.00 0.00 74 1013.8
20260507012516 74 68 5.0 9.0 0.00 0.00 0.00 74 1013.9
20260507011517 74 68 6.0 8.0 0.00 0.00 0.00 74 1013.9
20260507010518 74 68 5.0 7.0 0.00 0.00 0.00 73 1013.8
20260507005516 75 68 6.0 10.0 0.00 0.00 0.00 72 1013.9
20260507004517 75 68 6.0 10.0 0.00 0.00 0.00 71 1013.9
20260507003517 75 68 6.0 11.0 0.00 0.00 0.00 71 1014.0
20260507002518 75 68 5.0 10.0 0.00 0.00 0.00 71 1014.1
20260507001516 75 68 5.0 11.0 0.00 0.00 0.00 71 1014.2
20260507000516 76 68 6.0 10.0 0.00 0.00 0.00 70 1014.2
20260506235518 76 68 6.0 10.0 0.00 0.00 0.00 70 1014.2